METEOR-M
1 35865U 09049A 14016.72403152 -.00000000 00000-0 19233-4 0 1732
2 35865 098.5732 068.5704 0002355 157.8832 202.2445 14.21905044224818
RS-38
1 35869U 09049E 14016.71918370 .00000052 00000-0 42802-4 0 1237
2 35869 098.5664 068.4132 0004327 166.4728 193.6560 14.22172315224843
JUGNU
1 37839U 11058B 14016.48831272 .00000455 00000-0 10167-3 0 5439
2 37839 019.9624 094.2857 0019026 112.1972 007.4559 14.12233362117083
SRMSAT
1 37841U 11058D 14016.55658016 .00000404 00000-0 77820-4 0 5437
2 37841 019.9727 110.1599 0012064 058.3799 058.8940 14.10288810116926
RAX-2
1 37853U 11061D 14016.85874912 .00004216 00000-0 30908-3 0 6994
2 37853 101.7093 334.8045 0226415 133.5614 285.1896 14.86295068120156
AUBIESAT
1 37854U 11061E 14016.83170006 .00005821 00000-0 41221-3 0 6832
2 37854 101.7134 336.1382 0225588 131.5314 290.8317 14.87274813120187
HRBE
1 37855U 11061F 14016.50005881 .00005029 00000-0 36043-3 0 6932
2 37855 101.7131 335.2197 0227098 133.3612 344.1997 14.86783682120116
RS-39
1 38051U 11062C 14016.88334942 .00033044 00000-0 76291-3 0 1646
2 38051 051.6348 253.4047 0005896 320.2326 147.5037 15.42213245110634
E-STAR
1 38079U 12006C 14016.46101936 .00062366 39137-5 99778-3 0 7136
2 38079 069.4661 021.3035 0503547 210.1658 306.7926 14.74704217100845
GOLIAT
1 38085U 12006J 14016.84186443 .00069534 40306-5 11154-2 0 7259
2 38085 069.4710 024.6954 0519167 211.7798 221.6309 14.71332521100785
HORYU-2
1 38340U 12025D 14015.90724048 .00002135 00000-0 35052-3 0 7327
2 38340 098.2440 330.7959 0011808 303.4243 056.5829 14.71687937 89397
RS-40
1 38736U 12041D 14016.15095523 .00000010 00000-0 00000 0 0 4778
2 38736 082.4774 022.3358 0020478 219.4594 140.4997 12.42875524 66702
PROITERES
1 38756U 12047B 14016.82505985 .00001029 00000-0 16222-3 0 4901
2 38756 098.2361 102.6370 0013300 141.3093 218.9056 14.74586762 72872
BEESAT-3
1 39134U 13015E 14016.91676522 .00006343 00000-0 48578-3 0 4750
2 39134 064.8802 256.4169 0012157 330.6828 029.3604 15.02614759 40917
BEESAT-2
1 39136U 13015G 14016.86815923 .00005573 00000-0 43160-3 0 4651
2 39136 064.8767 256.6973 0012346 330.9463 029.0962 15.02331568 40909
CAPE-2
1 39380U 13064A 14016.61407246 .00004969 00000-0 22495-3 0 656
2 39380 040.5185 275.3533 0005091 330.6569 029.3960 15.21441017 8770
TRLBLAZER
1 39382U 13064C 14016.02493444 .00036910 00000-0 14507-2 0 709
2 39382 040.5033 277.8523 0004474 275.5074 084.5053 15.24944238 8684
TECHEDST3
1 39415U 98067DD 14015.90293569 .00000489 00000-0 12809-6 0 1265
2 39415 051.6250 126.7358 0011329 345.4786 014.6459 16.27530738 8861
ZACUBE-1
1 39417U 13066B 14016.76851778 .00001741 00000-0 24417-3 0 1728
2 39417 097.7940 092.5469 0063888 015.5771 344.7376 14.77334931 8336
TRITON-1
1 39427U 13066M 14016.22799075 .00001217 00000-0 21409-3 0 467
2 39427 097.7835 090.9055 0120299 014.2362 346.2177 14.64737293 8144
DELFIN3XT
1 39428U 13066N 14016.73579736 .00002096 00000-0 37604-3 0 509
2 39428 097.7832 091.1633 0131489 012.8286 347.6209 14.62250272 8190
GOMX-1
1 39430U 13066Q 14016.76185968 .00001155 00000-0 22965-3 0 1415
2 39430 097.7799 090.6632 0158957 013.3084 347.2195 14.56193778 8177
$50SAT
1 39436U 13066W 14016.16312422 .00011930 00000-0 13914-2 0 551
2 39436 097.7943 092.5792 0030754 031.7388 328.5506 14.85003692 8273
PUCPSAT-1
1 39442U 13066AC 14016.48179291 .00002774 00000-0 32815-3 0 411
2 39442 097.7966 092.9416 0036618 024.9830 335.3143 14.84943627 7107
